Wind_Speed
30 30 29 29 28 29 29 28 28 28 28 27 26 25 25 26 28 30 32 31 30 29 29 29 30 30 30 29 29 28 28 27 25 25 26 28 30 30 28 25 23 22 22 22 23 23 23 23 23 22 22 21 21 21 21 21 20 20 20 19 19 18 17 17 16 15 15 15 15 15 15 16 16 16 16 15 15 14 13 12 12 12 13 13 13 12
30 30 29 29 29 29 29 28 27 27 27 26 25 25 25 26 28 30 32 32 31 31 31 31 31 31 30 29 29 28 28 26 25 25 27 28 29 29 27 25 24 23 22 23 23 23 23 23 23 22 21 21 21 20 20 20 20 20 20 19 19 18 17 16 16 15 15 15 15 15 15 16 16 16 16 15 15 14 13 12 12 12 13 13 13 12
29 29 29 29 29 29 29 28 27 26 26 25 24 24 25 26 28 29 31 32 32 32 32 32 32 31 30 29 28 28 27 26 25 26 27 29 29 29 27 26 24 24 24 24 24 24 24 23 22 22 21 20 20 20 20 19 19 19 19 19 18 17 17 16 16 15 15 15 15 15 16 16 16 16 16 15 14 14 13 13 12 12 12 13 13 13
29 29 29 29 29 29 29 28 27 26 25 24 24 25 25 27 28 29 31 33 33 33 32 32 31 30 29 28 28 27 26 25 25 27 28 29 30 29 28 27 26 25 25 25 24 24 24 23 22 21 20 20 20 19 19 19 19 18 18 18 17 17 16 16 15 15 15 15 15 16 16 16 16 16 16 15 14 14 13 13 13 12 12 13 13 13
28 29 29 29 29 29 28 27 26 25 24 24 25 26 27 28 29 30 32 32 32 32 31 31 30 30 29 28 27 26 25 25 26 27 29 30 30 30 29 28 27 26 26 25 25 24 23 22 21 20 20 20 19 19 19 18 18 18 17 17 17 16 16 15 15 15 15 15 16 16 16 16 16 16 16 15 14 14 13 13 13 13 13 13 13 13
28 28 28 29 29 28 28 27 26 25 25 26 27 28 29 30 30 31 31 31 31 31 31 31 30 30 30 28 27 25 24 25 26 28 29 30 30 30 30 30 29 28 27 26 24 23 22 22 21 20 19 19 19 19 18 18 17 17 17 16 16 16 15 15 15 15 16 16 16 16 16 16 16 16 15 15 15 14 14 13 13 13 13 13 13 13
28 28 28 28 28 28 28 28 27 27 27 28 29 30 30 31 32 32 33 32 32 32 32 32 32 31 30 28 26 24 24 25 27 29 30 31 31 31 31 31 31 29 27 25 23 22 22 21 20 19 19 19 19 19 18 17 17 17 16 16 16 15 15 15 16 16 16 16 16 16 16 16 16 16 15 15 15 14 14 14 13 13 13 13 13 13
28 28 28 28 28 28 28 28 28 28 28 29 30 31 32 33 33 34 35 35 35 35 35 35 34 33 32 29 27 25 25 26 28 29 31 31 32 32 33 33 32 30 28 25 23 22 21 20 19 19 19 19 19 18 18 17 16 16 16 15 15 15 15 16 16 16 16 16 16 16 16 16 16 15 15 15 15 14 14 14 14 14 14 13 13 13
28 28 28 28 28 28 28 28 28 28 29 29 31 32 33 34 34 35 35 36 36 36 36 35 35 34 32 30 28 27 27 28 29 31 32 32 33 33 34 33 32 30 28 25 23 22 21 20 19 19 19 19 18 18 17 16 16 16 15 15 15 16 16 16 16 16 16 16 16 16 16 16 16 15 15 15 15 15 15 14 14 14 14 13 13 13
28 28 28 28 28 29 29 29 29 29 29 30 31 32 32 34 34 35 35 35 35 35 35 34 33 32 31 30 29 29 29 29 30 31 32 32 33 33 33 32 31 29 27 25 23 22 20 19 18 18 18 18 17 17 16 16 16 15 15 16 16 16 16 16 16 16 16 16 16 16 16 16 16 16 15 15 15 15 15 14 14 14 14 13 13 13
29 28 29 29 29 29 29 29 29 29 30 30 31 32 32 33 33 34 34 34 34 34 33 33 32 31 30 30 30 29 29 30 30 31 31 31 31 31 31 30 29 27 25 23 22 20 19 18 17 16 16 16 15 15 15 15 16 16 16 16 16 16 16 16 16 16 16 16 16 16 16 16 16 16 16 15 15 15 15 15 14 14 14 14 13 13
29 29 30 30 30 30 30 30 30 31 31 31 32 32 32 32 33 33 33 33 33 33 32 32 31 31 30 30 30 30 30 30 30 30 30 30 30 29 28 27 26 24 23 21 20 18 17 16 15 14 14 14 14 15 16 16 16 16 17 16 16 16 16 16 16 16 16 16 16 16 16 16 16 16 16 16 15 15 15 15 14 14 14 14 14 14
31 31 31 31 31 31 31 31 32 32 32 32 32 32 33 32 32 33 33 33 33 32 32 31 31 31 31 30 30 30 29 29 29 29 29 29 28 27 26 25 23 22 20 18 17 16 15 14 13 13 13 13 15 16 17 17 17 17 17 17 17 16 16 16 16 16 16 16 16 16 16 16 16 16 16 16 16 15 15 15 15 15 14 14 14 14
32 32 32 32 32 32 32 33 33 33 32 32 32 32 33 32 32 33 33 33 33 32 31 31 31 31 31 30 30 29 29 29 29 29 28 28 27 26 24 23 21 19 18 16 15 15 14 13 13 13 14 15 17 18 18 18 17 17 17 17 17 16 16 16 16 16 16 16 16 16 16 16 16 16 16 16 16 16 16 15 15 15 15 14 14 14
33 33 34 34 33 33 33 33 33 33 33 33 33 33 33 33 33 33 33 33 32 32 31 31 31 31 30 30 29 29 29 28 28 28 27 27 26 24 22 20 18 17 16 15 14 14 14 14 15 16 17 18 19 18 18 18 17 17 17 17 16 16 16 16 16 16 16 16 16 16 16 16 16 16 16 16 16 16 16 16 15 15 15 15 15 15
34 34 34 34 34 34 34 34 34 34 34 33 33 33 33 33 33 33 33 33 32 32 31 31 30 30 30 29 29 29 28 28 28 27 26 25 24 22 20 18 16 16 15 14 14 14 15 16 18 19 19 20 19 18 17 17 17 17 17 16 16 16 16 16 16 16 16 16 16 16 16 16 17 17 16 16 16 16 16 16 16 15 15 15 15 15
35 35 35 35 35 35 34 34 34 34 34 34 33 33 33 33 33 33 33 32 32 31 31 30 30 29 29 29 28 28 28 27 27 27 26 24 23 22 19 17 16 15 15 15 15 16 18 19 20 20 20 19 18 17 17 17 16 16 16 16 16 16 16 16 16 16 16 16 16 16 16 17 17 17 17 16 16 16 16 16 16 16 16 16 16 16
35 35 35 35 35 35 35 34 34 34 34 34 33 33 33 33 33 33 32 32 31 31 30 30 29 28 28 27 27 28 27 26 26 26 25 24 23 22 20 18 17 16 16 16 17 18 20 20 20 20 19 18 17 17 16 16 16 16 16 16 16 16 16 16 16 16 16 16 16 16 16 16 17 17 17 17 16 16 16 16 16 16 16 16 16 16
35 35 35 35 35 35 35 34 34 34 34 34 33 33 33 33 32 32 31 31 30 30 29 28 27 27 26 26 26 27 27 26 25 24 24 23 22 21 20 18 16 16 16 18 19 19 20 19 19 18 17 16 16 16 16 16 16 15 15 15 15 15 15 15 16 16 16 16 16 16 16 16 16 17 17 17 17 17 17 17 17 17 17 17 17 17
35 35 35 35 35 35 35 34 34 33 33 33 33 32 32 31 31 30 30 29 28 28 27 26 26 26 25 25 25 26 25 24 23 22 21 21 20 19 17 16 15 16 17 18 19 19 18 18 17 16 16 16 15 15 15 15 15 15 15 15 15 15 15 15 15 15 15 16 16 16 16 16 16 17 17 17 17 17 17 17 17 17 17 17 17 17
34 34 35 35 35 34 34 33 33 32 32 32 31 31 30 29 29 28 27 27 26 26 25 25 24 24 24 23 23 23 22 21 19 18 17 16 16 15 15 15 16 17 17 18 18 17 17 16 16 15 15 15 15 15 15 14 14 14 14 14 14 14 15 15 15 15 15 16 16 16 16 16 17 17 17 17 17 17 17 17 17 17 18 18 18 18
34 34 34 34 33 33 33 32 32 31 31 30 29 28 27 27 26 25 25 24 24 23 23 22 22 22 21 20 20 19 18 16 15 13 13 13 13 13 14 15 16 16 17 16 16 16 15 15 15 14 14 14 14 14 14 14 14 14 14 14 14 14 15 15 15 15 15 16 16 16 16 16 17 17 17 17 17 17 17 18 18 18 18 18 18 18
33 33 32 32 32 31 31 30 30 29 29 28 27 26 25 24 23 23 22 22 22 21 20 20 19 18 18 17 16 15 13 12 12 12 12 12 13 14 14 15 15 15 15 15 14 14 14 14 14 14 13 13 13 13 13 13 14 14 14 14 14 14 15 15 15 15 16 16 16 16 16 16 16 17 17 17 17 17 18 18 18 18 18 18 18 18
32 31 31 30 30 29 29 28 28 27 26 25 24 23 23 22 21 21 21 20 19 19 18 17 16 15 14 14 13 12 12 12 12 12 13 13 13 14 14 14 14 14 14 13 13 13 13 13 13 13 13 13 13 13 13 13 13 14 14 14 14 14 15 15 15 15 16 16 16 16 16 16 16 17 17 17 17 17 18 18 18 18 18 18 18 18
30 29 28 28 28 27 27 26 25 24 23 22 21 21 20 19 19 19 18 18 17 16 15 15 14 13 13 12 12 12 12 12 12 13 13 13 12 12 12 12 12 12 12 12 12 12 12 12 12 12 12 12 12 12 13 13 13 14 14 14 14 14 15 15 15 15 15 15 16 16 16 16 16 16 17 17 17 17 18 18 18 18 18 19 19 19
28 27 26 26 25 25 24 23 22 21 20 19 19 18 18 17 17 17 16 16 15 14 14 13 13 13 12 12 12 13 13 12 12 12 11 11 11 11 11 11 11 11 11 11 11 11 11 11 11 11 11 12 12 12 13 13 13 13 14 14 14 14 14 14 15 15 15 15 15 15 15 16 16 16 16 17 17 17 18 18 18 18 19 19 19 19
25 25 24 24 23 22 21 20 19 18 18 17 17 16 16 15 15 15 15 14 14 14 13 13 13 13 13 13 13 13 13 12 11 11 10 10 10 10 11 11 11 11 11 11 11 11 11 11 11 11 11 12 12 12 13 13 13 13 13 13 13 14 14 14 14 14 14 14 15 15 15 16 16 16 17 17 17 18 18 18 18 19 19 19 19 19
23 22 22 21 20 20 19 18 17 16 16 15 15 15 15 14 14 14 14 14 14 14 14 14 14 14 14 14 14 13 12 12 11 11 11 11 11 12 12 12 11 11 11 11 11 11 11 11 11 11 12 12 12 12 12 13 13 13 13 13 13 13 13 13 14 14 14 14 15 15 16 16 17 17 17 17 18 18 18 19 19 19 20 20 20 20
20 20 19 19 18 18 17 16 16 15 15 15 15 15 14 14 14 15 15 15 14 14 14 14 14 14 14 13 13 12 12 12 12 11 11 12 12 13 13 12 12 12 12 11 11 11 11 11 11 12 12 12 12 12 12 12 13 13 13 13 13 13 13 14 14 14 15 15 15 16 17 17 17 18 18 18 18 19 19 19 20 20 20 20 20 20
19 18 18 17 17 16 16 15 15 15 15 15 15 15 15 15 15 15 14 14 14 14 14 13 13 13 13 13 12 12 12 12 12 12 12 12 12 13 13 12 12 12 12 11 11 11 11 11 12 12 12 12 12 12 12 13 13 13 13 13 14 14 14 14 15 15 15 16 16 17 18 18 18 19 19 19 19 19 19 20 20 20 20 21 21 21
17 17 17 16 16 16 16 16 16 16 16 15 15 15 15 15 15 15 14 14 13 13 12 12 12 12 12 12 12 12 12 12 12 12 12 12 12 13 12 12 12 12 12 11 11 11 11 11 12 12 12 12 12 13 13 13 13 14 14 14 14 15 15 15 15 16 16 17 17 18 18 19 19 19 19 19 19 20 20 20 20 21 21 21 21 21
16 16 16 16 16 16 16 16 16 16 16 15 15 15 15 15 15 14 14 14 13 13 12 12 12 12 13 13 13 12 13 13 13 13 13 12 12 13 12 12 12 12 11 11 11 11 11 12 12 13 13 13 13 14 14 14 14 15 15 15 15 15 16 16 16 17 17 17 18 18 19 19 19 19 19 19 20 20 20 20 20 21 21 21 21 22
16 16 16 17 17 17 17 16 16 16 16 15 15 15 14 15 15 15 15 15 14 14 14 14 14 14 14 14 14 14 14 14 14 13 13 13 13 12 12 12 11 11 11 11 11 12 12 13 13 14 14 14 14 15 15 15 15 15 15 15 16 16 16 17 17 17 17 17 18 18 18 19 19 19 19 19 20 20 20 20 20 21 21 21 22 22
17 17 17 17 17 17 17 16 16 16 15 15 15 15 15 15 15 15 16 16 16 16 16 16 16 15 15 15 15 15 15 14 14 14 13 13 13 12 12 12 11 12 12 12 12 13 14 14 15 15 15 15 16 16 16 16 16 16 16 16 16 16 17 17 17 17 17 17 17 18 18 18 18 19 19 19 19 20 20 20 20 21 21 21 21 22
17 17 17 17 17 17 17 16 16 15 15 15 15 15 15 16 16 16 17 17 18 18 17 17 17 16 16 16 15 15 15 15 15 14 14 13 13 13 12 12 12 13 13 13 14 14 14 15 15 16 15 16 16 16 16 16 16 16 16 16 16 16 16 16 16 16 16 17 17 17 18 18 18 18 19 19 19 19 20 20 20 20 21 21 21 21
17 17 17 17 16 16 16 15 15 15 15 15 15 16 16 16 17 17 17 18 18 18 18 17 17 17 16 16 15 15 15 15 15 14 14 13 13 13 13 13 14 14 14 15 15 15 15 15 16 16 16 16 16 16 16 16 16 16 16 16 16 16 16 16 16 16 16 17 17 17 18 18 18 19 19 19 19 19 20 20 20 20 20 21 21 21
16 16 16 16 16 16 15 15 15 15 15 15 16 16 16 17 17 17 17 17 18 18 18 17 17 17 16 16 16 15 15 15 15 14 14 13 13 13 14 14 15 15 15 15 16 16 16 16 16 17 17 16 16 16 16 16 16 16 16 16 16 16 16 16 16 17 17 17 18 18 18 19 19 19 19 20 20 20 20 20 20 21 21 21 21 21
17 16 16 16 16 16 15 15 15 15 16 16 16 16 17 17 17 17 17 17 18 18 17 17 17 17 16 16 16 16 15 15 15 14 14 14 14 14 14 15 15 16 16 16 16 16 16 17 17 17 17 17 17 16 16 16 16 16 17 17 17 17 17 17 17 17 18 18 18 19 19 19 20 20 20 21 21 21 21 21 21 22 22 22 22 22
17 17 16 16 16 16 16 16 16 16 16 16 16 17 17 17 17 17 17 17 18 18 17 17 17 16 16 16 16 15 15 15 15 15 15 15 15 15 15 15 15 16 16 16 17 17 17 17 17 17 17 17 17 17 17 17 17 17 17 17 18 18 18 18 18 18 19 19 19 19 20 20 21 21 21 22 22 22 22 22 23 23 23 23 23 24
17 17 16 16 16 16 16 16 16 16 17 17 17 17 17 17 17 17 17 18 18 18 17 17 17 16 16 16 15 15 15 15 15 15 15 15 15 15 15 15 16 16 17 17 17 18 18 18 17 17 17 17 17 17 17 18 18 18 18 18 18 19 19 19 19 19 19 20 20 20 21 21 22 22 23 23 23 24 24 24 24 24 24 24 24 25
17 17 17 17 17 17 16 17 17 17 17 17 17 17 17 17 17 17 17 17 17 17 17 17 16 16 16 15 15 15 15 15 15 15 15 15 15 15 16 16 17 17 18 18 18 18 17 17 17 17 17 17 17 18 18 18 19 19 19 19 19 19 20 19 20 20 20 20 21 21 22 22 22 23 24 24 25 25 25 25 25 26 26 26 26 26
18 18 17 17 17 17 17 17 17 17 17 17 17 17 17 17 17 17 17 17 17 17 16 16 16 16 15 15 15 15 15 15 15 15 15 15 16 16 17 17 18 18 18 18 18 17 17 17 17 17 17 18 18 19 19 20 20 20 20 20 20 20 20 20 20 21 21 21 22 22 22 23 23 24 25 25 26 26 27 27 27 26 26 26 26 26
19 19 19 18 18 18 18 18 18 18 18 18 17 17 17 17 17 17 16 16 16 16 16 16 16 16 15 15 16 16 16 16 16 16 16 17 17 17 18 18 18 18 18 17 17 17 17 17 17 17 18 18 19 19 20 20 20 20 20 20 20 21 21 21 21 22 22 22 23 23 24 24 25 25 26 26 27 27 27 27 27 27 27 27 27 27
20 20 20 19 19 19 19 18 18 18 18 18 17 17 17 17 17 16 16 16 16 16 16 16 16 16 16 16 16 16 17 17 17 17 18 18 18 18 18 18 18 18 17 17 17 17 17 17 18 18 19 19 20 20 21 21 21 21 20 21 21 21 22 22 23 23 24 24 24 24 25 25 25 26 26 26 26 27 27 27 27 27 27 27 27 26
20 20 20 20 19 19 19 19 18 18 18 17 17 17 17 17 17 17 17 17 17 17 17 17 17 17 17 17 17 18 18 18 19 19 19 19 19 18 18 18 17 17 17 17 17 17 18 18 18 19 19 20 20 20 21 21 21 21 21 22 22 23 24 24 25 25 25 25 25 25 25 25 25 25 25 25 25 26 26 26 26 26 26 26 26 26
21 21 21 20 20 19 19 18 18 18 18 17 17 17 17 17 17 18 18 18 18 18 18 18 18 18 18 18 19 19 19 19 19 19 19 19 19 18 18 17 17 17 17 17 18 18 18 19 19 19 19 20 20 21 21 22 22 22 23 24 24 25 25 26 26 26 26 25 25 25 24 24 24 24 24 24 24 24 25 25 26 26 26 26 26 26
22 21 21 20 20 19 19 18 18 18 18 18 18 18 18 18 18 18 18 18 18 18 19 19 19 19 19 20 20 20 20 20 20 19 19 18 18 17 17 17 17 17 17 18 18 18 19 19 19 19 20 20 21 21 22 23 23 24 25 25 26 26 27 27 26 26 25 25 24 24 23 23 23 23 23 23 23 24 24 24 25 25 25 25 25 25
22 22 21 20 20 19 18 18 18 18 18 18 18 18 18 18 18 18 19 19 19 19 20 20 20 20 21 21 21 21 20 20 20 19 18 18 18 17 17 17 17 17 18 18 19 19 19 20 20 20 21 21 22 22 23 24 25 25 26 26 27 27 27 27 26 25 24 24 23 23 22 22 22 22 22 22 23 23 23 24 24 24 24 24 24 24
23 22 22 20 20 19 18 18 18 18 18 18 18 18 18 18 19 19 19 20 20 20 21 21 21 21 22 21 21 21 20 20 19 19 18 18 18 17 17 17 18 18 18 19 19 20 20 20 21 22 22 22 23 24 25 25 26 26 27 27 27 27 27 26 25 24 23 23 22 22 22 22 22 22 22 22 22 22 23 23 23 23 23 23 23 23
24 23 22 21 20 19 19 18 18 18 18 18 18 18 19 19 19 20 20 21 21 22 22 22 22 22 22 21 21 20 20 19 19 18 18 18 18 18 18 18 18 18 19 19 20 20 21 21 22 23 23 24 24 25 25 26 26 27 27 27 26 26 26 25 24 23 23 22 22 21 21 21 22 22 22 22 22 22 22 23 23 22 22 22 23 23
25 24 22 21 20 19 19 19 18 18 18 18 19 19 19 20 20 21 21 22 22 22 22 22 22 21 21 21 20 19 19 19 18 18 18 18 18 18 18 18 19 19 19 20 20 21 21 22 22 23 24 25 25 25 26 26 26 27 27 26 26 25 25 24 23 23 22 22 21 21 21 21 21 22 22 21 21 22 22 22 22 22 22 22 22 22
Wind_Direction
287 286 284 281 280 278 277 275 274 272 270 267 265 263 261 260 259 259 258 258 259 262 264 264 263 262 264 268 273 276 277 278 278 277 277 276 275 271 267 264 266 272 280 286 289 289 286 283 280 277 275 272 269 265 262 259 257 255 253 252 250 249 248 247 247 247 247 246 246 246 247 249 252 255 257 258 258 257 254 252 251 252 254 256 257 259
285 284 283 281 280 278 276 274 272 269 267 265 263 260 258 258 259 260 261 260 260 260 260 260 260 260 263 268 272 275 275 275 274 274 274 274 273 269 265 263 266 272 280 287 290 289 286 282 278 276 273 270 267 263 259 256 254 252 250 249 248 247 246 245 245 245 246 246 247 248 249 251 253 255 257 258 258 256 254 252 251 252 253 255 257 260
284 283 282 280 279 278 276 274 271 269 267 265 264 261 259 259 260 261 262 262 260 258 257 257 258 260 264 269 272 274 273 272 271 271 271 271 270 267 264 263 266 272 280 286 289 288 284 279 276 274 272 269 265 261 257 254 251 249 247 246 245 244 244 244 244 245 246 248 248 249 250 251 253 255 257 257 257 255 254 252 251 251 252 254 257 259
282 281 281 280 278 277 276 275 273 271 269 268 267 265 263 261 260 260 260 260 259 258 257 258 260 264 268 271 273 273 272 270 268 268 268 269 268 266 264 263 266 273 281 287 289 287 282 277 274 272 271 268 264 260 256 252 249 247 245 244 243 242 243 243 245 246 247 248 249 250 251 252 253 255 256 256 256 255 253 252 251 251 252 254 256 258
280 280 280 279 279 278 277 276 274 271 268 264 263 262 262 260 259 258 257 257 258 259 261 263 266 269 272 274 274 273 270 267 265 265 266 267 267 265 264 264 268 275 282 288 289 285 279 274 271 270 268 266 262 258 254 250 247 245 243 242 242 242 243 244 245 247 248 249 250 250 251 252 253 254 255 255 255 254 253 252 252 251 252 253 255 256
279 279 279 279 279 279 277 275 272 268 262 258 256 256 257 258 258 259 259 260 262 264 267 269 272 274 275 276 276 273 268 264 262 263 264 265 265 265 266 268 273 279 286 290 289 283 275 271 269 268 266 263 259 255 251 248 245 243 242 241 241 242 243 245 246 248 249 250 250 251 251 252 253 254 254 254 254 254 253 252 252 252 252 253 254 255
279 279 278 279 279 278 277 275 272 268 262 257 254 254 255 256 258 260 263 265 268 270 272 274 276 278 279 280 278 274 267 263 261 261 263 264 265 266 269 273 280 287 292 292 287 280 272 268 266 265 263 260 256 253 249 246 243 241 241 240 241 243 244 246 247 248 249 250 251 251 251 252 252 253 253 253 253 253 252 252 252 252 252 253 254 256
279 278 278 278 278 277 276 274 272 269 266 261 258 256 256 256 258 260 262 265 268 271 273 276 278 279 281 281 278 273 267 263 260 260 262 263 265 267 271 276 283 289 292 290 284 276 270 266 264 262 259 257 254 250 247 244 242 240 240 240 241 243 244 246 247 248 249 250 251 251 251 251 252 252 252 252 252 252 251 251 252 252 253 254 255 257
279 279 278 278 277 276 276 274 272 270 268 266 262 260 259 259 260 261 262 264 267 269 272 274 276 277 278 278 276 272 268 264 262 261 262 263 265 268 272 276 281 285 287 284 279 273 267 264 261 258 256 253 251 248 246 244 242 241 241 241 242 243 245 246 247 248 249 249 250 250 250 250 250 250 250 250 250 251 251 251 251 253 254 255 257 258
279 279 279 278 277 276 275 274 272 270 269 267 266 265 264 263 263 264 265 266 268 269 271 272 274 274 274 273 272 270 268 266 265 264 265 266 267 269 272 276 279 281 281 278 273 268 264 260 257 254 251 250 248 247 246 245 244 244 243 243 244 245 246 247 247 248 249 249 250 250 249 249 249 249 249 250 250 250 251 252 252 253 255 256 258 259
279 279 279 279 278 277 275 274 272 271 269 268 267 267 267 267 267 268 268 269 269 270 270 271 271 271 271 270 269 268 267 266 266 267 267 268 270 271 273 276 277 278 276 272 268 263 258 255 251 249 247 246 246 247 247 247 247 246 246 246 246 247 247 248 249 249 249 250 250 250 250 249 249 249 249 249 250 251 251 252 253 254 255 256 258 259
280 280 279 278 278 276 276 274 273 271 269 268 268 268 268 268 269 269 270 270 270 270 269 269 269 269 269 268 267 267 267 267 267 268 269 270 271 272 274 275 275 274 270 266 261 256 252 249 247 245 244 244 245 246 247 247 246 246 247 247 247 248 249 249 250 250 250 250 250 250 250 250 250 250 250 250 250 251 252 252 253 254 256 257 258 259
279 279 279 278 277 276 275 274 272 271 270 269 268 268 268 268 269 269 269 269 269 269 269 269 268 268 268 268 267 267 267 267 267 268 269 269 270 271 272 272 271 268 263 258 253 249 247 245 245 245 244 244 244 244 245 244 244 245 246 246 247 248 249 250 250 250 250 250 250 250 250 250 249 249 250 250 250 251 252 252 253 254 255 256 258 259
279 279 278 277 277 276 275 274 272 271 270 269 269 268 268 268 268 267 267 268 268 268 268 268 268 268 268 268 267 267 267 266 267 267 268 268 269 269 269 268 265 261 255 250 246 244 243 243 244 245 244 243 243 243 242 242 242 243 244 246 247 248 249 249 249 249 249 249 249 249 249 249 249 249 249 250 250 251 252 253 254 255 256 257 258 259
278 278 277 277 276 275 274 273 272 271 270 269 268 267 267 267 266 266 267 267 267 268 267 267 267 268 267 267 267 267 266 266 265 265 266 266 266 266 265 262 258 252 247 243 241 241 241 241 242 241 241 242 243 242 242 241 242 243 244 245 246 247 247 248 248 248 248 248 248 248 248 248 248 249 249 249 250 251 252 253 254 255 256 257 259 260
277 277 276 276 275 274 273 272 271 270 269 268 267 266 266 266 265 266 266 266 266 266 266 266 266 266 267 267 266 266 265 264 263 263 263 263 262 261 258 253 249 244 240 238 237 237 238 239 240 240 241 242 242 241 241 242 242 243 244 246 246 247 247 247 247 247 247 247 247 247 248 248 248 249 249 250 251 252 253 254 255 256 257 258 259 260
276 276 275 275 274 273 272 271 270 269 268 267 266 266 265 264 264 265 265 265 266 265 265 265 265 264 265 265 264 263 262 261 261 261 260 259 257 254 249 242 238 236 235 234 235 236 238 240 240 241 241 241 241 241 241 242 243 244 245 246 247 247 247 247 247 247 247 247 247 247 248 248 249 249 250 251 252 254 255 256 257 258 259 260 261 261
275 274 274 274 273 272 271 270 269 269 268 267 266 265 264 264 264 264 264 265 265 264 264 264 264 263 262 261 260 260 259 259 258 258 257 255 252 247 240 233 228 228 231 234 236 238 239 240 240 240 240 239 240 241 242 243 244 245 246 246 247 247 247 247 247 247 247 248 248 248 249 249 250 251 252 253 255 256 257 258 259 260 260 261 262 262
274 274 273 272 272 271 271 270 269 268 267 266 265 264 264 263 263 263 264 264 263 263 263 262 261 260 259 257 257 257 257 256 256 255 254 250 246 241 234 227 223 226 232 237 239 239 239 239 239 238 238 239 240 241 242 243 244 245 246 246 247 247 247 248 248 248 249 249 249 250 250 251 252 253 254 255 257 258 259 260 260 261 262 262 263 263
273 272 272 271 271 270 270 269 269 268 267 266 265 264 263 263 263 263 263 262 262 261 260 259 258 257 256 254 254 254 254 254 254 252 249 243 237 232 226 223 225 231 236 238 238 238 237 237 237 237 237 239 240 241 243 243 244 245 246 247 247 248 248 248 249 249 250 250 251 251 252 253 254 255 256 257 258 259 260 261 262 262 263 263 264 264
272 271 271 271 270 269 269 269 268 267 266 265 264 263 263 263 262 261 261 260 259 257 256 255 254 253 252 250 250 250 250 250 248 244 238 230 224 221 221 224 230 235 237 236 235 234 234 234 235 236 238 239 240 242 243 244 245 246 246 247 248 248 249 249 250 251 251 252 252 253 254 255 256 257 258 259 260 260 261 262 262 263 264 264 264 265
271 270 270 269 269 269 268 267 266 265 265 264 263 262 261 260 259 258 257 255 254 252 251 249 248 247 246 245 244 244 243 240 234 226 219 214 214 218 223 229 233 234 233 232 231 231 231 232 234 236 237 238 240 242 243 244 245 246 247 247 248 249 249 250 251 252 252 253 254 254 255 256 257 258 259 260 261 261 262 263 263 263 264 264 265 265
271 270 269 268 268 267 266 265 264 263 263 261 260 259 258 256 254 253 251 249 248 246 244 242 241 240 238 237 235 231 227 222 217 213 211 214 220 225 228 231 231 229 228 228 228 229 230 231 233 235 236 238 240 241 243 244 246 247 248 248 249 249 250 251 252 252 253 254 255 255 256 257 258 259 260 261 261 262 263 263 263 264 264 264 265 265
270 269 268 267 266 265 264 263 262 260 259 258 256 255 253 251 248 246 245 243 241 238 236 234 231 228 225 222 219 216 212 211 212 215 218 222 226 227 227 228 226 225 225 225 226 228 229 231 232 234 235 237 239 241 243 245 246 247 248 249 250 250 251 252 252 253 254 255 256 257 258 258 259 260 260 261 262 262 263 263 264 264 264 264 265 265
269 268 267 265 264 262 261 259 258 256 255 253 250 248 245 242 240 238 236 234 231 227 223 220 216 213 211 209 210 212 214 216 219 222 224 225 225 224 223 223 223 223 224 225 226 227 229 231 232 234 236 238 240 242 244 245 247 248 249 249 250 251 252 253 254 254 255 256 257 258 258 259 260 260 261 262 262 263 263 263 264 264 264 264 265 265
267 266 264 263 261 259 257 255 253 250 248 245 242 238 235 232 229 227 225 222 217 213 209 207 206 206 207 209 214 217 218 219 219 220 219 219 219 221 222 223 223 223 225 226 228 229 230 231 234 236 238 240 241 243 244 245 247 248 249 250 251 251 253 254 255 256 257 258 259 259 260 261 261 261 262 262 262 263 263 264 264 264 265 265 265 265
265 263 261 258 256 254 251 248 245 242 238 234 230 227 224 221 218 214 211 207 204 201 201 202 204 208 211 213 215 215 214 212 211 210 209 210 213 218 222 224 224 224 225 227 229 230 230 232 235 237 239 240 242 243 243 245 246 247 248 250 251 252 253 254 256 257 258 259 260 261 262 262 262 263 263 263 263 263 264 264 264 265 265 265 265 266
262 259 256 253 250 247 243 239 235 230 226 221 218 215 212 209 205 202 201 199 198 198 202 206 210 213 214 214 211 208 205 204 204 206 207 208 210 214 219 222 223 223 223 226 228 230 231 232 234 236 238 240 241 242 243 244 245 247 248 250 251 253 254 255 256 258 259 260 261 262 263 263 264 264 264 264 264 265 265 265 265 265 266 266 266 266
257 253 250 246 242 238 233 227 222 217 213 210 207 205 202 199 198 197 198 198 200 204 209 212 214 214 213 210 206 202 200 200 203 208 210 208 209 212 216 218 220 221 222 224 226 229 230 232 234 235 237 239 241 242 244 245 246 248 249 251 252 254 255 256 258 259 260 261 262 263 264 264 265 265 265 266 266 266 266 266 266 266 266 267 267 267
251 246 242 237 232 226 220 215 211 207 204 202 201 199 198 197 198 200 201 202 206 211 213 214 213 211 209 207 204 203 202 202 205 209 211 208 208 211 215 216 218 220 222 223 225 228 230 232 234 236 238 240 242 244 245 247 248 250 251 253 254 256 257 258 259 260 262 263 263 264 265 265 266 266 266 267 267 267 267 267 267 267 267 267 267 267
242 237 232 227 222 216 210 206 203 201 200 198 198 199 200 201 202 204 205 207 211 213 212 211 210 209 208 207 206 205 204 205 208 211 210 207 208 211 214 215 217 221 223 224 225 228 232 235 238 239 241 243 245 247 248 250 251 252 254 255 257 258 259 261 262 263 264 264 265 266 266 267 267 267 268 268 268 268 268 268 268 269 269 269 269 268
233 228 223 218 213 208 204 201 200 199 198 198 199 201 203 205 207 207 208 209 211 211 210 210 210 211 210 209 207 205 206 208 211 212 211 207 208 212 215 215 218 222 225 227 229 231 235 238 242 244 245 246 248 250 251 252 254 255 257 258 260 261 262 263 264 265 265 266 266 267 267 268 268 268 269 269 269 269 269 269 269 270 270 270 270 269
224 219 215 211 207 203 201 200 199 199 199 200 201 204 206 208 209 209 208 208 208 209 209 210 211 211 211 210 208 207 208 209 211 212 211 209 210 212 216 218 222 226 230 234 236 238 239 242 244 247 248 249 251 252 253 255 256 258 259 260 262 263 264 264 265 266 266 267 268 268 268 269 269 269 270 270 270 271 271 271 271 270 271 271 270 270
216 212 209 205 203 201 200 200 200 201 201 202 204 206 208 209 210 209 207 207 207 208 209 208 208 208 208 208 207 208 209 210 212 213 213 212 213 215 219 223 227 232 236 239 242 244 244 246 247 249 251 252 254 255 256 257 258 259 260 261 261 262 263 264 265 266 266 267 268 268 269 269 270 271 271 271 271 271 271 271 271 271 271 271 271 271
210 207 204 202 201 200 201 201 202 203 204 205 206 208 209 210 210 209 207 206 206 206 207 207 207 206 207 207 207 207 208 211 213 214 215 215 216 219 224 228 233 237 240 242 244 246 247 248 250 251 253 255 256 257 258 258 259 259 260 260 260 261 262 263 264 265 266 267 268 268 269 270 271 271 272 272 272 272 272 272 272 272 271 271 271 271
204 202 200 199 199 199 200 202 204 205 206 207 208 209 210 210 210 208 207 205 205 204 204 205 206 207 207 208 208 209 210 213 215 216 218 219 221 224 228 232 236 239 241 243 245 247 248 250 252 254 255 257 258 258 258 258 258 258 258 259 259 260 261 263 264 265 266 267 268 269 270 271 272 272 273 273 273 273 273 273 272 272 272 272 271 271
199 198 197 197 197 198 200 202 205 207 208 208 209 209 210 210 209 207 206 205 204 203 203 204 205 207 208 210 211 212 214 216 218 220 222 224 227 230 232 236 239 241 242 243 246 248 250 253 255 257 258 258 258 258 258 258 257 258 258 259 260 261 262 264 265 266 267 268 269 271 271 272 273 273 274 274 274 274 274 273 273 273 272 272 272 272
197 196 197 197 198 199 201 203 206 208 209 209 209 209 209 208 207 206 205 204 203 203 203 204 206 208 210 212 214 216 218 220 223 225 228 230 233 235 236 238 241 243 244 245 247 250 252 254 256 258 259 259 259 258 258 258 258 258 259 260 262 263 264 266 267 268 269 270 271 272 273 274 274 274 275 275 275 274 274 274 273 273 273 273 272 272
197 198 199 200 201 202 203 205 207 209 210 210 209 209 208 207 206 205 204 203 202 203 204 206 208 210 213 215 217 220 222 225 228 230 233 235 237 238 240 241 243 245 247 249 251 253 254 255 256 257 258 259 259 260 260 260 260 260 261 262 263 265 266 267 269 269 270 271 272 273 274 274 275 275 275 275 275 275 274 274 274 273 273 273 273 273
201 202 204 206 207 207 207 208 209 210 211 210 209 208 208 206 205 204 204 203 204 204 206 208 210 213 216 218 221 223 226 228 231 233 236 238 239 241 243 245 247 249 251 252 253 254 255 256 256 257 258 259 260 261 261 262 262 262 263 264 265 266 267 269 270 271 272 272 273 273 274 275 275 276 276 276 276 275 275 274 274 274 274 273 273 273
207 209 211 212 212 211 211 211 212 212 211 210 209 208 207 206 206 205 205 205 206 208 210 212 215 217 220 222 225 227 229 231 234 236 238 240 243 245 248 250 251 252 253 254 254 255 255 256 257 258 259 260 261 262 262 263 263 264 265 265 267 268 269 270 271 272 272 273 274 274 275 275 276 276 277 276 276 276 276 275 275 274 274 274 273 272
213 215 217 217 215 214 213 213 213 212 212 211 209 208 207 207 207 207 208 209 211 213 215 218 220 223 226 228 230 232 233 235 237 239 242 245 247 250 251 253 254 254 254 254 254 254 256 257 258 260 262 263 264 264 264 265 265 266 266 267 268 269 270 271 272 272 273 274 275 275 276 277 277 277 277 277 277 277 277 276 275 275 274 274 273 272
219 220 219 218 217 215 214 213 212 211 210 209 209 208 208 208 209 210 212 214 216 219 222 224 226 228 230 232 234 236 237 239 241 244 246 249 251 252 253 253 254 253 253 253 254 255 257 259 261 263 265 266 267 267 267 267 268 268 269 270 271 271 272 273 273 274 275 275 276 277 278 278 278 278 278 277 277 277 277 276 276 275 275 274 273 273
222 221 220 218 216 215 213 211 210 209 208 208 208 209 210 212 213 215 218 220 222 225 227 228 230 232 233 235 237 239 241 243 245 247 250 251 252 253 253 253 253 253 253 254 255 258 260 262 264 266 267 268 268 269 270 270 271 272 272 273 274 275 275 276 276 277 278 278 279 279 279 279 279 278 278 277 277 277 277 276 276 276 275 275 274 273
222 221 219 217 215 212 210 208 208 208 208 208 209 211 214 216 219 221 223 225 227 229 230 232 233 234 236 238 240 242 244 247 249 250 252 253 253 253 253 253 253 253 254 255 257 260 262 264 266 267 267 268 269 270 271 272 274 275 276 277 277 278 279 279 280 280 281 281 281 281 281 281 280 279 278 278 277 277 276 276 276 276 276 275 275 274
221 220 217 215 212 209 208 207 207 208 209 211 213 216 219 221 224 226 228 229 231 232 234 235 236 238 239 241 243 245 247 249 251 252 253 253 254 254 253 253 253 254 255 257 259 261 263 264 266 266 267 268 269 270 272 274 276 277 279 279 280 281 281 281 282 282 283 283 283 283 282 281 280 279 279 278 278 277 277 277 277 277 277 276 276 275
220 217 214 212 209 208 208 209 210 211 213 215 218 220 223 225 228 230 232 234 235 236 238 239 241 242 243 245 247 248 250 251 252 253 253 253 253 253 252 253 253 254 256 258 260 262 263 265 265 266 267 269 270 272 274 276 278 279 280 281 282 282 282 283 283 283 284 284 283 283 282 281 281 280 279 279 279 278 278 278 278 278 277 277 277 276
216 213 211 209 209 209 211 213 214 216 218 220 222 224 227 229 232 234 236 238 240 241 243 244 245 246 247 248 249 250 251 252 252 252 251 251 251 250 250 251 252 254 256 258 260 262 263 264 265 267 268 269 272 274 276 278 279 280 281 282 282 282 283 283 282 283 283 282 282 282 281 281 280 280 280 280 279 279 279 278 278 278 278 278 278 277
212 210 209 209 210 212 215 217 219 220 221 223 225 227 230 232 235 238 240 243 244 246 247 248 248 249 249 250 250 250 250 250 249 249 248 248 247 247 248 249 251 253 256 258 260 261 263 264 266 267 269 271 273 275 277 279 280 281 281 282 282 282 281 281 281 281 280 280 280 280 280 280 280 280 280 280 280 280 279 279 279 279 279 279 278 277
210 209 209 211 213 215 218 220 221 222 224 225 227 230 233 236 239 242 244 247 248 250 250 250 250 250 250 249 249 248 247 246 246 245 245 244 244 245 246 248 251 253 256 258 260 262 264 265 267 269 271 273 274 276 278 280 280 281 281 281 280 280 280 279 279 278 278 278 278 278 279 279 279 279 280 280 280 279 279 279 279 279 279 279 278 277
210 210 211 213 215 217 219 221 222 223 225 227 230 233 236 240 243 246 249 250 252 253 253 253 252 250 248 247 245 244 243 242 241 242 242 242 243 244 247 249 252 255 257 259 261 263 264 266 268 270 273 274 276 277 278 279 280 280 280 279 279 278 277 277 277 276 277 277 277 278 278 279 279 280 280 280 279 279 279 279 279 279 278 278 277 276
Height
3073 3072 3072 3072 3071 3070 3070 3070 3070 3070 3069 3069 3069 3069 3069 3069 3069 3069 3069 3069 3068 3068 3068 3068 3068 3068 3068 3068 3068 3068 3068 3068 3068 3068 3068 3068 3068 3068 3067 3067 3067 3067 3067 3067 3066 3066 3065 3064 3064 3064 3064 3063 3063 3063 3063 3063 3064 3064 3064 3064 3065 3065 3066 3066 3067 3067 3068 3068 3069 3069 3069 3069 3069 3070 3070 3071 3071 3072 3072 3072 3072 3072 3072 3072 3072 3072
3070 3070 3069 3069 3068 3068 3068 3068 3068 3068 3068 3067 3067 3067 3067 3067 3067 3067 3067 3067 3066 3066 3066 3066 3066 3066 3066 3066 3066 3066 3065 3065 3065 3066 3066 3066 3066 3066 3065 3065 3065 3065 3065 3064 3064 3064 3063 3063 3062 3062 3062 3062 3062 3062 3062 3062 3062 3063 3063 3063 3064 3064 3065 3065 3066 3066 3067 3067 3068 3068 3068 3068 3068 3069 3069 3070 3070 3070 3071 3071 3071 3071 3071 3071 3071 3071
3068 3067 3067 3067 3066 3066 3066 3066 3066 3066 3066 3065 3065 3065 3065 3065 3065 3065 3065 3065 3065 3064 3064 3064 3064 3063 3063 3063 3063 3063 3063 3063 3063 3064 3064 3064 3064 3063 3063 3063 3063 3063 3063 3063 3062 3062 3061 3061 3060 3060 3060 3060 3060 3060 3060 3061 3061 3061 3062 3062 3063 3063 3063 3064 3064 3065 3065 3066 3066 3067 3067 3067 3067 3068 3068 3068 3069 3069 3069 3069 3070 3070 3070 3070 3070 3070
3065 3065 3064 3064 3064 3064 3063 3063 3063 3063 3063 3063 3063 3063 3063 3063 3063 3063 3063 3063 3063 3062 3062 3062 3062 3061 3061 3061 3061 3061 3061 3061 3061 3062 3062 3062 3062 3062 3062 3061 3061 3061 3061 3060 3060 3060 3060 3059 3059 3058 3058 3058 3058 3059 3059 3059 3060 3060 3060 3061 3061 3062 3062 3063 3063 3064 3064 3064 3065 3065 3066 3066 3066 3066 3067 3067 3068 3068 3068 3068 3068 3068 3068 3069 3069 3069
3063 3063 3062 3062 3062 3061 3061 3061 3061 3061 3061 3061 3061 3061 3061 3060 3060 3060 3060 3061 3060 3060 3060 3060 3059 3059 3059 3059 3059 3059 3059 3059 3059 3059 3059 3059 3059 3060 3060 3059 3059 3059 3059 3058 3058 3058 3058 3057 3057 3057 3057 3057 3057 3057 3058 3058 3058 3059 3059 3060 3060 3061 3061 3062 3062 3063 3063 3063 3063 3064 3064 3065 3065 3065 3066 3066 3066 3067 3067 3067 3067 3068 3068 3068 3068 3068
3061 3060 3060 3059 3059 3059 3059 3059 3058 3058 3059 3059 3059 3059 3059 3058 3058 3058 3058 3058 3058 3058 3058 3058 3057 3057 3057 3057 3057 3057 3057 3057 3058 3058 3057 3057 3058 3058 3058 3058 3057 3057 3057 3056 3056 3056 3056 3055 3055 3055 3055 3055 3056 3056 3056 3057 3057 3058 3058 3058 3059 3059 3060 3060 3061 3061 3062 3062 3062 3063 3063 3063 3064 3064 3064 3065 3065 3065 3066 3066 3066 3066 3067 3067 3067 3067
3058 3058 3058 3057 3057 3056 3056 3056 3056 3056 3056 3056 3056 3057 3057 3056 3056 3056 3056 3056 3056 3056 3055 3055 3055 3055 3055 3054 3054 3055 3055 3055 3055 3055 3055 3055 3055 3056 3056 3055 3055 3055 3054 3054 3054 3054 3054 3053 3053 3053 3053 3054 3054 3054 3055 3055 3056 3056 3057 3057 3058 3058 3059 3059 3059 3060 3060 3061 3061 3062 3062 3062 3063 3063 3063 3063 3064 3064 3064 3065 3065 3065 3065 3066 3066 3066
3056 3055 3055 3055 3054 3054 3054 3054 3054 3054 3054 3053 3053 3053 3053 3053 3054 3053 3053 3053 3053 3053 3053 3053 3053 3053 3053 3053 3053 3053 3053 3053 3053 3053 3053 3053 3053 3053 3053 3053 3053 3053 3053 3052 3052 3052 3052 3052 3052 3052 3052 3052 3053 3053 3054 3054 3055 3055 3056 3056 3057 3057 3058 3058 3058 3059 3059 3059 3060 3060 3061 3061 3062 3062 3062 3063 3063 3063 3063 3064 3064 3064 3064 3064 3064 3065
3053 3053 3053 3053 3052 3052 3051 3051 3051 3052 3052 3051 3051 3050 3050 3051 3051 3051 3051 3051 3051 3051 3051 3051 3051 3051 3050 3050 3051 3051 3051 3051 3051 3051 3051 3051 3051 3051 3051 3051 3051 3051 3051 3051 3051 3051 3050 3050 3050 3050 3051 3051 3052 3052 3053 3053 3053 3054 3054 3055 3055 3056 3056 3057 3057 3058 3058 3058 3059 3059 3059 3060 3060 3061 3061 3061 3062 3062 3062 3063 3063 3063 3063 3063 3063 3063
3051 3050 3050 3050 3050 3049 3049 3049 3049 3049 3049 3049 3048 3048 3048 3048 3048 3048 3048 3048 3048 3049 3048 3048 3048 3048 3048 3048 3048 3048 3048 3049 3049 3049 3048 3048 3048 3049 3049 3049 3049 3049 3049 3049 3049 3049 3049 3048 3048 3049 3049 3050 3050 3051 3051 3052 3052 3053 3053 3054 3054 3055 3055 3056 3056 3056 3057 3057 3058 3058 3058 3059 3059 3059 3060 3060 3061 3061 3061 3061 3062 3062 3062 3062 3062 3062
3048 3048 3048 3047 3047 3047 3047 3047 3046 3046 3046 3046 3046 3045 3045 3045 3045 3045 3045 3045 3046 3046 3046 3046 3046 3046 3046 3046 3046 3046 3046 3046 3046 3046 3046 3046 3046 3046 3046 3047 3047 3047 3047 3047 3047 3047 3047 3047 3047 3048 3048 3048 3049 3050 3050 3051 3051 3052 3052 3053 3053 3053 3054 3054 3055 3055 3056 3056 3056 3057 3057 3058 3058 3058 3059 3059 3059 3060 3060 3060 3060 3061 3061 3061 3061 3061
3045 3045 3045 3045 3044 3044 3044 3044 3044 3044 3043 3043 3043 3043 3043 3043 3043 3043 3043 3043 3043 3043 3043 3043 3043 3043 3043 3043 3043 3044 3044 3044 3044 3044 3044 3044 3044 3044 3044 3044 3045 3045 3045 3045 3045 3045 3045 3046 3046 3046 3047 3047 3048 3049 3049 3050 3050 3051 3051 3052 3052 3052 3053 3053 3053 3054 3054 3055 3055 3055 3056 3056 3057 3057 3058 3058 3058 3058 3059 3059 3059 3059 3060 3060 3060 3060
3043 3042 3042 3042 3042 3042 3042 3041 3041 3041 3040 3040 3040 3040 3040 3040 3040 3040 3039 3039 3040 3040 3040 3040 3040 3041 3041 3041 3041 3041 3042 3042 3042 3042 3042 3042 3042 3042 3042 3042 3043 3043 3043 3043 3043 3043 3044 3044 3044 3045 3046 3046 3047 3048 3048 3049 3049 3050 3050 3050 3051 3051 3052 3052 3053 3053 3053 3053 3054 3054 3055 3055 3055 3056 3056 3057 3057 3057 3058 3058 3058 3058 3058 3058 3059 3059
3040 3040 3039 3039 3039 3039 3039 3038 3038 3038 3038 3038 3038 3038 3037 3037 3037 3037 3037 3037 3037 3038 3038 3038 3038 3038 3038 3038 3038 3039 3039 3039 3039 3039 3039 3039 3039 3040 3040 3040 3041 3041 3041 3042 3042 3042 3042 3043 3043 3044 3045 3046 3046 3047 3048 3048 3048 3048 3049 3049 3050 3050 3050 3051 3051 3052 3052 3052 3053 3053 3053 3054 3054 3055 3055 3055 3056 3056 3056 3057 3057 3057 3057 3058 3058 3058
3037 3037 3036 3036 3036 3036 3036 3036 3035 3035 3035 3035 3035 3034 3034 3034 3034 3034 3034 3034 3034 3035 3035 3035 3035 3035 3036 3036 3036 3036 3037 3037 3037 3037 3037 3037 3037 3038 3038 3038 3039 3039 3039 3040 3040 3040 3041 3041 3042 3043 3044 3044 3045 3046 3046 3046 3047 3047 3048 3048 3048 3049 3049 3050 3050 3050 3051 3051 3051 3052 3052 3053 3053 3053 3054 3054 3054 3055 3055 3055 3056 3056 3056 3056 3056 3057
3034 3034 3033 3033 3033 3033 3033 3033 3032 3032 3032 3032 3032 3032 3032 3032 3032 3031 3031 3032 3032 3032 3033 3033 3033 3033 3033 3033 3034 3034 3034 3034 3034 3034 3035 3035 3035 3035 3036 3037 3037 3038 3038 3038 3039 3039 3040 3040 3041 3042 3043 3043 3044 3044 3044 3045 3045 3046 3046 3047 3047 3048 3048 3048 3049 3049 3049 3050 3050 3050 3051 3051 3052 3052 3053 3053 3053 3053 3054 3054 3054 3054 3055 3055 3055 3055
3031 3031 3030 3030 3030 3030 3030 3030 3029 3029 3029 3029 3029 3029 3029 3029 3029 3028 3029 3029 3029 3029 3030 3030 3030 3031 3031 3031 3032 3032 3032 3032 3032 3032 3033 3033 3033 3033 3034 3034 3035 3036 3037 3037 3038 3038 3039 3039 3040 3041 3041 3042 3042 3043 3043 3043 3044 3044 3045 3045 3046 3046 3047 3047 3047 3048 3048 3048 3049 3049 3050 3050 3050 3051 3051 3052 3052 3052 3052 3053 3053 3053 3053 3053 3054 3054
3028 3028 3027 3027 3027 3027 3027 3027 3026 3026 3026 3026 3026 3026 3026 3026 3026 3026 3026 3026 3027 3027 3027 3028 3028 3028 3029 3029 3029 3029 3029 3029 3030 3030 3030 3031 3031 3032 3032 3033 3033 3034 3035 3036 3036 3037 3037 3038 3038 3039 3040 3040 3041 3041 3042 3042 3043 3043 3043 3044 3044 3045 3045 3046 3046 3046 3047 3047 3048 3048 3048 3049 3049 3049 3050 3050 3050 3051 3051 3051 3051 3052 3052 3052 3052 3052
3024 3024 3024 3024 3023 3023 3023 3023 3023 3023 3023 3023 3023 3023 3023 3023 3023 3023 3023 3024 3024 3024 3025 3025 3026 3026 3027 3027 3027 3027 3027 3027 3028 3028 3028 3029 3029 3030 3030 3031 3032 3033 3034 3034 3035 3035 3036 3037 3037 3038 3038 3039 3039 3040 3040 3041 3041 3042 3042 3043 3043 3043 3044 3044 3045 3045 3045 3046 3046 3047 3047 3047 3048 3048 3048 3049 3049 3049 3049 3050 3050 3050 3050 3051 3051 3051
3021 3021 3021 3021 3020 3020 3020 3020 3021 3020 3020 3020 3020 3020 3020 3020 3021 3021 3021 3021 3022 3022 3023 3023 3023 3024 3024 3024 3025 3025 3025 3025 3026 3026 3026 3027 3028 3028 3029 3030 3031 3032 3033 3033 3033 3034 3035 3035 3036 3036 3037 3037 3038 3038 3039 3039 3040 3040 3041 3041 3042 3042 3043 3043 3043 3043 3044 3044 3045 3045 3046 3046 3046 3047 3047 3047 3048 3048 3048 3048 3048 3049 3049 3049 3049 3049
3018 3018 3018 3018 3017 3017 3017 3018 3018 3018 3017 3017 3017 3017 3018 3018 3018 3018 3018 3019 3019 3020 3020 3021 3021 3021 3022 3022 3023 3023 3023 3023 3024 3024 3025 3025 3026 3027 3028 3029 3030 3031 3031 3032 3032 3033 3033 3034 3034 3035 3035 3036 3036 3037 3037 3038 3038 3039 3039 3040 3040 3041 3041 3042 3042 3042 3043 3043 3043 3044 3044 3044 3045 3045 3045 3046 3046 3046 3047 3047 3047 3047 3047 3048 3048 3048
3015 3015 3015 3015 3014 3014 3014 3014 3014 3014 3014 3014 3014 3015 3015 3015 3015 3016 3016 3017 3017 3018 3018 3018 3019 3019 3020 3020 3021 3021 3021 3022 3022 3023 3023 3024 3025 3026 3027 3028 3028 3029 3030 3030 3031 3032 3032 3033 3033 3034 3034 3035 3035 3036 3036 3036 3037 3038 3038 3038 3039 3039 3040 3040 3040 3041 3041 3042 3042 3042 3043 3043 3043 3044 3044 3044 3044 3045 3045 3045 3045 3046 3046 3046 3046 3046
3012 3012 3012 3012 3012 3012 3011 3011 3011 3011 3012 3012 3012 3012 3012 3013 3013 3013 3014 3014 3015 3015 3016 3016 3017 3018 3018 3018 3019 3019 3020 3021 3021 3022 3023 3023 3024 3025 3026 3027 3027 3028 3028 3029 3030 3030 3031 3031 3032 3033 3033 3033 3034 3034 3035 3035 3036 3036 3037 3037 3038 3038 3038 3039 3039 3039 3040 3040 3041 3041 3041 3042 3042 3042 3043 3043 3043 3043 3043 3043 3044 3044 3044 3044 3044 3044
3009 3009 3009 3009 3009 3009 3008 3008 3008 3009 3009 3009 3009 3010 3010 3010 3011 3011 3012 3012 3013 3013 3014 3015 3015 3016 3017 3017 3018 3018 3019 3020 3020 3021 3022 3023 3023 3024 3025 3025 3026 3027 3027 3028 3028 3029 3030 3030 3031 3031 3032 3032 3033 3033 3033 3034 3034 3035 3035 3036 3036 3037 3037 3038 3038 3038 3038 3039 3039 3039 3040 3040 3040 3041 3041 3041 3041 3042 3042 3042 3042 3042 3042 3043 3043 3043
3007 3006 3006 3006 3006 3006 3006 3006 3006 3006 3006 3007 3007 3007 3008 3008 3009 3009 3010 3011 3012 3012 3013 3013 3014 3015 3015 3016 3017 3018 3018 3019 3019 3020 3021 3022 3022 3023 3024 3024 3025 3025 3026 3027 3027 3028 3028 3029 3030 3030 3031 3031 3032 3032 3033 3033 3033 3034 3034 3035 3035 3035 3036 3036 3037 3037 3037 3038 3038 3038 3038 3038 3039 3039 3039 3040 3040 3040 3040 3040 3040 3041 3041 3041 3041 3041
3003 3003 3003 3003 3003 3003 3003 3003 3004 3004 3004 3005 3005 3006 3006 3007 3007 3008 3009 3009 3010 3011 3012 3013 3013 3014 3015 3015 3016 3017 3017 3018 3018 3019 3020 3021 3022 3022 3023 3023 3024 3024 3025 3026 3026 3027 3028 3028 3028 3029 3029 3030 3030 3031 3031 3032 3032 3033 3033 3033 3034 3034 3034 3035 3035 3035 3036 3036 3036 3037 3037 3037 3038 3038 3038 3038 3038 3038 3038 3039 3039 3039 3039 3039 3039 3039
3001 3001 3001 3001 3001 3001 3001 3002 3002 3002 3003 3003 3003 3004 3005 3005 3006 3007 3008 3008 3009 3010 3011 3012 3012 3013 3014 3014 3015 3015 3016 3017 3018 3018 3019 3020 3021 3021 3022 3023 3023 3024 3024 3025 3025 3026 3027 3027 3028 3028 3028 3029 3029 3030 3030 3031 3031 3031 3032 3032 3033 3033 3033 3033 3034 3034 3034 3035 3035 3035 3035 3036 3036 3036 3036 3037 3037 3037 3037 3037 3037 3037 3037 3037 3038 3038
2998 2998 2998 2998 2999 2999 2999 3000 3000 3001 3001 3002 3002 3003 3003 3004 3005 3006 3007 3007 3008 3009 3010 3011 3011 3012 3012 3013 3014 3014 3015 3016 3017 3017 3018 3019 3020 3020 3021 3021 3022 3023 3023 3023 3024 3025 3025 3026 3026 3027 3027 3028 3028 3028 3029 3029 3030 3030 3030 3031 3031 3031 3032 3032 3033 3033 3033 3033 3033 3034 3034 3034 3034 3035 3035 3035 3035 3035 3035 3035 3035 3035 3036 3036 3036 3036
2996 2996 2997 2997 2997 2998 2998 2998 2999 2999 3000 3001 3001 3002 3003 3003 3004 3005 3006 3006 3007 3008 3009 3009 3010 3011 3011 3012 3013 3013 3014 3015 3016 3016 3017 3018 3018 3019 3019 3020 3021 3021 3022 3023 3023 3024 3024 3025 3025 3026 3026 3027 3027 3027 3028 3028 3028 3029 3029 3029 3030 3030 3030 3031 3031 3031 3032 3032 3032 3032 3033 3033 3033 3033 3033 3033 3033 3034 3034 3034 3034 3034 3034 3034 3034 3034
2994 2994 2995 2995 2996 2996 2997 2997 2998 2998 2999 3000 3000 3001 3002 3003 3003 3004 3005 3006 3006 3007 3008 3008 3009 3010 3011 3011 3012 3013 3013 3014 3014 3015 3016 3017 3017 3018 3018 3019 3020 3020 3021 3021 3022 3023 3023 3024 3024 3025 3025 3025 3026 3026 3027 3027 3027 3028 3028 3028 3028 3029 3029 3029 3030 3030 3030 3031 3031 3031 3031 3031 3031 3032 3032 3032 3032 3032 3032 3032 3032 3032 3032 3032 3032 3032
2993 2993 2993 2994 2994 2995 2996 2996 2997 2998 2998 2999 3000 3000 3001 3002 3003 3003 3004 3005 3005 3006 3007 3008 3008 3009 3010 3011 3011 3012 3013 3013 3013 3014 3015 3016 3016 3017 3017 3018 3018 3019 3020 3020 3021 3021 3022 3023 3023 3023 3024 3024 3024 3025 3025 3026 3026 3026 3027 3027 3027 3028 3028 3028 3028 3028 3029 3029 3029 3029 3029 3030 3030 3030 3030 3030 3030 3030 3030 3030 3030 3030 3030 3030 3030 3030
2991 2992 2992 2993 2993 2994 2995 2995 2996 2997 2997 2998 2998 2999 3000 3001 3002 3002 3003 3004 3004 3005 3006 3007 3008 3008 3009 3010 3010 3011 3012 3012 3013 3013 3014 3015 3015 3016 3017 3017 3018 3018 3019 3019 3020 3020 3021 3021 3022 3022 3023 3023 3023 3024 3024 3024 3025 3025 3025 3026 3026 3026 3026 3027 3027 3027 3028 3028 3028 3028 3028 3028 3028 3028 3028 3028 3028 3028 3028 3028 3028 3028 3028 3028 3028 3028
2990 2990 2991 2991 2992 2993 2993 2994 2995 2996 2996 2997 2998 2998 2999 3000 3001 3001 3002 3003 3004 3004 3005 3006 3007 3007 3008 3009 3009 3010 3011 3011 3012 3013 3013 3014 3014 3015 3016 3016 3017 3017 3018 3018 3019 3019 3020 3020 3020 3021 3021 3022 3022 3023 3023 3023 3023 3023 3024 3024 3024 3025 3025 3025 3025 3026 3026 3026 3026 3026 3026 3026 3027 3027 3027 3027 3027 3027 3027 3027 3027 3027 3027 3026 3026 3026
2988 2989 2989 2990 2991 2992 2993 2993 2994 2995 2995 2996 2997 2997 2998 2999 2999 3000 3001 3002 3003 3003 3004 3005 3005 3006 3007 3008 3008 3009 3009 3010 3011 3012 3012 3013 3013 3014 3014 3015 3016 3016 3017 3017 3018 3018 3018 3019 3019 3019 3020 3020 3021 3021 3021 3022 3022 3022 3022 3023 3023 3023 3023 3024 3024 3024 3024 3024 3024 3025 3025 3025 3025 3025 3025 3025 3025 3025 3025 3025 3025 3025 3025 3025 3024 3024
2987 2988 2988 2989 2990 2991 2991 2992 2993 2993 2994 2995 2995 2996 2997 2998 2998 2999 3000 3001 3001 3002 3003 3004 3004 3005 3006 3007 3007 3008 3008 3009 3010 3010 3011 3012 3013 3013 3013 3014 3014 3015 3015 3016 3016 3017 3017 3018 3018 3018 3018 3019 3019 3019 3020 3020 3020 3020 3021 3021 3021 3022 3022 3022 3023 3023 3023 3023 3023 3023 3023 3023 3023 3023 3023 3023 3023 3023 3023 3023 3023 3023 3023 3023 3023 3023
2986 2986 2987 2988 2988 2989 2990 2991 2992 2993 2993 2994 2994 2995 2996 2997 2997 2998 2999 2999 3000 3001 3002 3003 3003 3004 3005 3006 3006 3007 3008 3008 3009 3009 3010 3011 3011 3012 3013 3013 3013 3014 3014 3015 3015 3016 3016 3016 3017 3017 3017 3018 3018 3018 3018 3018 3019 3019 3019 3019 3020 3020 3020 3021 3021 3021 3021 3021 3021 3021 3021 3021 3021 3021 3021 3021 3021 3021 3021 3021 3021 3021 3021 3021 3021 3021
2985 2985 2986 2987 2988 2988 2989 2990 2991 2991 2992 2993 2993 2994 2995 2995 2996 2997 2998 2998 2999 3000 3001 3002 3003 3003 3004 3004 3005 3006 3007 3007 3008 3008 3009 3009 3010 3011 3011 3012 3012 3013 3013 3013 3014 3014 3015 3015 3015 3015 3016 3016 3016 3017 3017 3017 3017 3018 3018 3018 3018 3018 3019 3019 3019 3019 3019 3019 3019 3019 3019 3019 3019 3019 3019 3019 3019 3019 3019 3019 3019 3019 3019 3019 3019 3019
2984 2984 2985 2986 2987 2987 2988 2989 2989 2990 2991 2992 2992 2993 2993 2994 2995 2996 2997 2998 2998 2999 3000 3001 3001 3002 3003 3003 3004 3005 3005 3006 3007 3007 3008 3008 3009 3009 3010 3010 3011 3012 3012 3012 3013 3013 3013 3013 3013 3014 3014 3014 3015 3015 3015 3015 3016 3016 3016 3017 3017 3017 3017 3018 3018 3018 3018 3018 3018 3018 3018 3018 3018 3018 3017 3017 3017 3017 3017 3017 3017 3017 3017 3017 3017 3017
2983 2983 2984 2985 2985 2986 2987 2988 2988 2989 2990 2990 2991 2992 2993 2993 2994 2995 2996 2997 2997 2998 2999 3000 3000 3001 3002 3003 3003 3004 3004 3005 3005 3006 3006 3007 3008 3008 3009 3009 3009 3010 3010 3011 3011 3011 3012 3012 3012 3012 3013 3013 3013 3013 3013 3014 3014 3014 3015 3015 3015 3016 3016 3016 3016 3016 3016 3016 3016 3016 3016 3016 3016 3015 3015 3015 3015 3015 3015 3015 3015 3015 3015 3015 3015 3015
2981 2982 2983 2983 2984 2985 2986 2987 2987 2988 2989 2989 2990 2991 2992 2992 2993 2994 2995 2995 2996 2997 2998 2998 2999 3000 3001 3001 3002 3003 3003 3003 3004 3004 3005 3006 3006 3007 3007 3008 3008 3008 3009 3009 3009 3010 3010 3010 3010 3011 3011 3011 3011 3012 3012 3012 3013 3013 3013 3013 3014 3014 3014 3014 3014 3014 3014 3014 3014 3014 3014 3014 3013 3013 3013 3013 3013 3013 3013 3013 3013 3013 3013 3013 3013 3013
2980 2981 2982 2982 2983 2984 2985 2985 2986 2987 2988 2988 2989 2990 2991 2991 2992 2993 2994 2994 2995 2996 2997 2997 2998 2999 2999 3000 3001 3001 3002 3002 3003 3003 3003 3004 3004 3005 3005 3006 3006 3007 3007 3008 3008 3008 3008 3008 3008 3009 3009 3009 3010 3010 3010 3010 3011 3011 3011 3012 3012 3012 3012 3013 3013 3013 3012 3012 3012 3012 3012 3012 3012 3011 3011 3011 3010 3010 3010 3010 3010 3010 3010 3010 3010 3010
2979 2979 2980 2981 2982 2983 2983 2984 2985 2986 2986 2987 2988 2989 2990 2990 2991 2992 2993 2993 2994 2995 2996 2996 2997 2998 2998 2999 2999 3000 3000 3001 3001 3002 3002 3003 3003 3003 3004 3004 3005 3005 3005 3006 3006 3006 3006 3007 3007 3007 3007 3008 3008 3008 3008 3008 3009 3009 3009 3010 3010 3010 3010 3010 3010 3010 3010 3010 3010 3010 3010 3010 3010 3009 3009 3008 3008 3008 3008 3008 3008 3008 3008 3008 3008 3008
2978 2978 2979 2980 2980 2981 2982 2983 2984 2984 2985 2986 2987 2988 2988 2989 2990 2991 2992 2992 2993 2994 2994 2995 2996 2996 2997 2997 2998 2998 2999 2999 2999 3000 3001 3001 3001 3002 3002 3003 3003 3003 3003 3004 3004 3004 3005 3005 3005 3005 3005 3006 3006 3006 3006 3006 3007 3007 3008 3008 3008 3008 3008 3008 3008 3008 3008 3008 3008 3008 3008 3008 3007 3007 3006 3006 3006 3005 3005 3005 3005 3005 3005 3005 3005 3005
2976 2977 2978 2978 2979 2980 2981 2981 2982 2983 2984 2985 2986 2987 2988 2988 2989 2990 2990 2991 2992 2992 2993 2993 2994 2995 2995 2996 2996 2997 2997 2998 2998 2998 2999 2999 3000 3000 3000 3001 3001 3001 3002 3002 3003 3003 3003 3003 3003 3003 3004 3004 3004 3004 3004 3004 3004 3005 3005 3005 3005 3005 3005 3005 3006 3006 3006 3006 3006 3006 3005 3005 3005 3004 3004 3003 3003 3003 3002 3002 3002 3002 3002 3002 3002 3002
2974 2975 2976 2977 2978 2978 2979 2980 2981 2982 2983 2984 2984 2985 2986 2987 2988 2988 2989 2989 2990 2991 2991 2992 2993 2993 2993 2994 2994 2995 2995 2996 2996 2997 2997 2998 2998 2998 2998 2999 2999 3000 3000 3000 3001 3001 3001 3001 3002 3002 3002 3002 3002 3002 3002 3002 3002 3002 3002 3003 3003 3003 3003 3003 3003 3003 3003 3003 3003 3003 3003 3002 3002 3002 3001 3001 3000 3000 3000 2999 2999 2999 2999 2999 2999 3000
2973 2974 2974 2975 2976 2977 2978 2979 2979 2980 2981 2982 2983 2984 2985 2985 2986 2987 2987 2988 2988 2989 2990 2990 2991 2991 2992 2992 2993 2993 2993 2994 2994 2995 2995 2996 2996 2996 2997 2997 2998 2998 2998 2999 2999 2999 2999 3000 3000 3000 3000 3000 3000 2999 2999 2999 2999 3000 3000 3000 3000 3000 3000 3000 3000 3000 3000 3000 3000 3000 2999 2999 2999 2999 2998 2998 2998 2998 2997 2997 2997 2997 2997 2997 2997 2997
2972 2973 2973 2974 2975 2976 2977 2977 2978 2979 2980 2980 2981 2982 2983 2984 2984 2985 2986 2986 2987 2987 2988 2988 2989 2990 2990 2991 2991 2991 2992 2992 2993 2993 2993 2994 2994 2995 2995 2995 2996 2996 2997 2997 2997 2997 2998 2998 2998 2998 2998 2998 2998 2998 2997 2997 2997 2997 2997 2997 2997 2997 2997 2997 2997 2997 2997 2997 2997 2997 2997 2997 2996 2996 2996 2996 2996 2995 2995 2995 2994 2994 2994 2994 2994 2994
2970 2971 2972 2973 2973 2974 2975 2976 2977 2977 2978 2979 2979 2980 2981 2982 2983 2983 2984 2984 2985 2985 2986 2987 2987 2988 2988 2988 2989 2989 2990 2990 2991 2991 2992 2992 2993 2993 2993 2994 2994 2994 2995 2995 2995 2995 2995 2996 2996 2996 2996 2996 2996 2995 2995 2995 2995 2995 2995 2994 2994 2994 2994 2994 2994 2994 2994 2994 2994 2994 2994 2994 2994 2994 2994 2993 2993 2993 2993 2993 2992 2992 2992 2992 2992 2992
2969 2970 2971 2971 2972 2973 2974 2974 2975 2976 2976 2977 2978 2978 2979 2980 2981 2981 2982 2983 2983 2983 2984 2985 2985 2986 2986 2987 2987 2988 2988 2988 2989 2989 2990 2990 2991 2991 2992 2992 2993 2993 2993 2993 2993 2993 2993 2993 2993 2993 2993 2994 2993 2993 2993 2993 2993 2993 2992 2992 2992 2992 2992 2992 2992 2992 2992 2992 2992 2992 2992 2992 2992 2992 2992 2991 2991 2991 2991 2990 2990 2990 2990 2990 2990 2990
2967 2968 2969 2970 2971 2971 2972 2973 2973 2974 2975 2975 2976 2977 2978 2978 2979 2980 2980 2981 2981 2982 2982 2983 2983 2984 2984 2985 2985 2985 2986 2987 2987 2988 2988 2988 2989 2989 2990 2990 2991 2991 2991 2991 2992 2992 2992 2992 2992 2992 2991 2991 2991 2991 2991 2991 2990 2990 2990 2990 2989 2989 2989 2989 2989 2989 2989 2989 2989 2989 2989 2989 2989 2989 2989 2989 2989 2989 2989 2988 2988 2988 2988 2988 2988 2988
2966 2967 2968 2968 2969 2970 2970 2971 2972 2973 2973 2974 2974 2975 2976 2977 2977 2978 2978 2979 2979 2980 2980 2981 2981 2982 2982 2983 2983 2983 2984 2985 2985 2986 2986 2987 2987 2988 2988 2988 2989 2989 2989 2989 2990 2990 2990 2990 2990 2989 2989 2989 2989 2989 2989 2988 2988 2988 2988 2987 2987 2987 2987 2987 2987 2987 2987 2987 2987 2987 2987 2987 2987 2987 2987 2987 2987 2987 2987 2986 2986 2986 2986 2986 2986 2985